Hourly Weather Gaborone

Today, 26 September, Saturday

Time Temperature Precipitation Wind Pressure Humidity
00:00 +25°C° 0 mm 1 mps 672 mmHg 22%
01:00 +24°C° 0 mm 1 mps 672 mmHg 23%
02:00 +23°C° 0 mm 1 mps 672 mmHg 26%
03:00 +22°C° 0 mm 1 mps 672 mmHg 26%
04:00 +21°C° 0 mm 1 mps 672 mmHg 26%
05:00 +21°C° 0 mm 1 mps 672 mmHg 26%
06:00 +21°C° 0 mm 3 mps 673 mmHg 21%
07:00 +22°C° 0 mm 4 mps 674 mmHg 17%
08:00 +25°C° 0 mm 5 mps 675 mmHg 11%
09:00 +27°C° 0 mm 5 mps 675 mmHg 9%
10:00 +29°C° 0 mm 5 mps 676 mmHg 8%
11:00 +33°C° 0 mm 5 mps 676 mmHg 7%
12:00 +34°C° 0 mm 5 mps 675 mmHg 6%
13:00 +34°C° 0 mm 5 mps 675 mmHg 6%
14:00 +35°C° 0 mm 5 mps 674 mmHg 5%
15:00 +34°C° 0 mm 5 mps 674 mmHg 6%
16:00 +34°C° 0 mm 5 mps 674 mmHg 6%
17:00 +33°C° 0 mm 5 mps 674 mmHg 6%
18:00 +29°C° 0 mm 4 mps 673 mmHg 8%
19:00 +26°C° 0 mm 3 mps 673 mmHg 10%
20:00 +23°C° 0 mm 2 mps 673 mmHg 12%
21:00 +20°C° 0 mm 3 mps 673 mmHg 12%
22:00 +19°C° 0 mm 3 mps 673 mmHg 13%
23:00 +18°C° 0 mm 3 mps 674 mmHg 13%

Tomorrow, 27 September, Sunday

Time Temperature Precipitation Wind Pressure Humidity
00:00 +17°C° 0 mm 3 mps 673 mmHg 13%
01:00 +16°C° 0 mm 3 mps 673 mmHg 13%
02:00 +14°C° 0 mm 3 mps 672 mmHg 13%
03:00 +14°C° 0 mm 2 mps 672 mmHg 14%
04:00 +13°C° 0 mm 2 mps 672 mmHg 15%
05:00 +12°C° 0 mm 2 mps 672 mmHg 16%
06:00 +15°C° 0 mm 2 mps 673 mmHg 14%
07:00 +17°C° 0 mm 2 mps 674 mmHg 12%
08:00 +19°C° 0 mm 3 mps 674 mmHg 10%
09:00 +24°C° 0 mm 2 mps 675 mmHg 8%
10:00 +28°C° 0 mm 2 mps 675 mmHg 6%
11:00 +32°C° 0 mm 1 mps 676 mmHg 4%
12:00 +34°C° 0 mm 3 mps 675 mmHg 4%
13:00 +35°C° 0 mm 4 mps 675 mmHg 4%
14:00 +36°C° 0 mm 6 mps 674 mmHg 4%
15:00 +36°C° 0 mm 6 mps 674 mmHg 4%
16:00 +35°C° 0 mm 6 mps 674 mmHg 4%
17:00 +34°C° 0 mm 6 mps 673 mmHg 4%
18:00 +30°C° 0 mm 5 mps 673 mmHg 5%
19:00 +26°C° 0 mm 5 mps 673 mmHg 7%
20:00 +22°C° 0 mm 4 mps 673 mmHg 8%
21:00 +21°C° 0 mm 4 mps 673 mmHg 9%
22:00 +20°C° 0 mm 4 mps 674 mmHg 10%
23:00 +19°C° 0 mm 4 mps 674 mmHg 11%

Day after tomorrow, 28 September, Monday

Time Temperature Precipitation Wind Pressure Humidity
00:00 +17°C° 0 mm 3 mps 674 mmHg 13%
01:00 +16°C° 0 mm 2 mps 674 mmHg 14%
02:00 +15°C° 0 mm 1 mps 674 mmHg 16%
03:00 +14°C° 0 mm 1 mps 674 mmHg 17%
04:00 +14°C° 0 mm 2 mps 674 mmHg 17%
05:00 +13°C° 0 mm 2 mps 675 mmHg 18%
06:00 +15°C° 0 mm 2 mps 676 mmHg 16%
07:00 +17°C° 0 mm 3 mps 676 mmHg 13%
08:00 +19°C° 0 mm 3 mps 677 mmHg 11%
09:00 +22°C° 0 mm 3 mps 678 mmHg 9%
10:00 +27°C° 0 mm 2 mps 679 mmHg 8%
11:00 +30°C° 0 mm 1 mps 679 mmHg 6%
12:00 +31°C° 0 mm 1 mps 678 mmHg 5%
13:00 +32°C° 0 mm 1 mps 678 mmHg 5%
14:00 +35°C° 0 mm 2 mps 677 mmHg 4%
15:00 +34°C° 0 mm 2 mps 677 mmHg 4%
16:00 +34°C° 0 mm 2 mps 676 mmHg 4%
17:00 +34°C° 0 mm 2 mps 676 mmHg 4%
18:00 +29°C° 0 mm 2 mps 676 mmHg 5%
19:00 +26°C° 0 mm 2 mps 675 mmHg 5%
20:00 +21°C° 0 mm 3 mps 675 mmHg 6%
21:00 +20°C° 0 mm 3 mps 676 mmHg 7%
22:00 +19°C° 0 mm 3 mps 676 mmHg 7%
23:00 +18°C° 0 mm 4 mps 676 mmHg 8%

29 September, Tuesday

Time Temperature Precipitation Wind Pressure Humidity
00:00 +17°C° 0 mm 3 mps 676 mmHg 8%
01:00 +16°C° 0 mm 2 mps 676 mmHg 8%
02:00 +14°C° 0 mm 1 mps 676 mmHg 9%
03:00 +14°C° 0 mm 1 mps 676 mmHg 9%
04:00 +13°C° 0 mm 1 mps 676 mmHg 9%
05:00 +13°C° 0 mm 1 mps 676 mmHg 9%
06:00 +15°C° 0 mm 2 mps 676 mmHg 9%
07:00 +17°C° 0 mm 2 mps 677 mmHg 9%
08:00 +19°C° 0 mm 2 mps 678 mmHg 9%
09:00 +23°C° 0 mm 2 mps 678 mmHg 12%
10:00 +26°C° 0 mm 3 mps 678 mmHg 15%
11:00 +29°C° 0 mm 3 mps 679 mmHg 19%
12:00 +31°C° 0 mm 3 mps 678 mmHg 16%
13:00 +34°C° 0 mm 3 mps 677 mmHg 12%
14:00 +35°C° 0 mm 2 mps 677 mmHg 9%
15:00 +35°C° 0 mm 2 mps 676 mmHg 9%
16:00 +35°C° 0 mm 3 mps 676 mmHg 9%
17:00 +34°C° 0 mm 3 mps 676 mmHg 9%
18:00 +30°C° 0 mm 2 mps 675 mmHg 17%
19:00 +26°C° 0 mm 1 mps 675 mmHg 25%
20:00 +23°C° 0 mm 1 mps 675 mmHg 33%
21:00 +22°C° 0 mm 1 mps 675 mmHg 40%
22:00 +21°C° 0 mm 1 mps 676 mmHg 48%
23:00 +20°C° 0 mm 1 mps 676 mmHg 55%

30 September, Wednesday

Time Temperature Precipitation Wind Pressure Humidity
00:00 +20°C° 0 mm 1 mps 676 mmHg 60%
01:00 +19°C° 0 mm 1 mps 676 mmHg 65%
02:00 +17°C° 0 mm 2 mps 675 mmHg 70%
03:00 +17°C° 0 mm 3 mps 675 mmHg 77%
04:00 +17°C° 0 mm 4 mps 675 mmHg 84%
05:00 +16°C° 0 mm 5 mps 675 mmHg 91%
06:00 +16°C° 0 mm 5 mps 675 mmHg 86%
07:00 +17°C° 0 mm 6 mps 676 mmHg 82%
08:00 +19°C° 0 mm 6 mps 676 mmHg 77%
09:00 +20°C° 0 mm 6 mps 676 mmHg 72%
10:00 +22°C° 0 mm 6 mps 676 mmHg 67%
11:00 +23°C° 0 mm 6 mps 675 mmHg 62%
12:00 +27°C° 0 mm 6 mps 675 mmHg 52%
13:00 +29°C° 0 mm 6 mps 674 mmHg 43%
14:00 +33°C° 0 mm 5 mps 674 mmHg 34%
15:00 +32°C° 0.1 mm 6 mps 673 mmHg 39%
16:00 +31°C° 0.1 mm 8 mps 672 mmHg 44%
17:00 +28°C° 0.1 mm 9 mps 672 mmHg 49%
18:00 +26°C° 0.3 mm 7 mps 672 mmHg 55%
19:00 +23°C° 0.3 mm 6 mps 672 mmHg 61%
20:00 +21°C° 0.3 mm 5 mps 672 mmHg 67%
21:00 +21°C° 0.1 mm 6 mps 671 mmHg 71%
22:00 +21°C° 0.1 mm 6 mps 671 mmHg 74%
23:00 +21°C° 0.1 mm 7 mps 670 mmHg 78%

1 October, Thursday

Time Temperature Precipitation Wind Pressure Humidity
00:00 +20°C° 0 mm 5 mps 670 mmHg 79%
01:00 +20°C° 0 mm 4 mps 670 mmHg 80%
02:00 +20°C° 0 mm 3 mps 669 mmHg 81%
03:00 +20°C° 0.2 mm 3 mps 669 mmHg 80%
04:00 +20°C° 0.2 mm 4 mps 669 mmHg 79%
05:00 +20°C° 0.2 mm 4 mps 670 mmHg 78%
06:00 +21°C° 0 mm 4 mps 670 mmHg 69%
07:00 +21°C° 0 mm 4 mps 671 mmHg 59%
08:00 +22°C° 0 mm 5 mps 672 mmHg 49%
09:00 +23°C° 0 mm 5 mps 672 mmHg 39%
10:00 +25°C° 0 mm 5 mps 672 mmHg 28%
11:00 +26°C° 0 mm 6 mps 672 mmHg 18%
12:00 +26°C° 0 mm 7 mps 672 mmHg 15%
13:00 +27°C° 0 mm 7 mps 672 mmHg 12%
14:00 +27°C° 0 mm 8 mps 672 mmHg 9%
15:00 +24°C° 0 mm 8 mps 672 mmHg 13%
16:00 +22°C° 0 mm 9 mps 672 mmHg 17%
17:00 +19°C° 0 mm 9 mps 672 mmHg 21%
18:00 +17°C° 0 mm 8 mps 672 mmHg 23%
19:00 +15°C° 0 mm 6 mps 673 mmHg 25%
20:00 +12°C° 0 mm 5 mps 674 mmHg 27%
21:00 +10°C° 0 mm 5 mps 674 mmHg 25%
22:00 +9°C° 0 mm 5 mps 675 mmHg 22%
23:00 +8°C° 0 mm 5 mps 676 mmHg 20%
Show more